Location: Rathdrum
(47.8130°N, 116.8960°W)
Time: 16:35:43
(UTC-08:00)

Amateur Radio Satellites - All Passes

Search period start: 16 December 2017 16:05
Search period end: 17 December 2017 16:05
Location: Rathdrum, 47.8130°N, 116.8960°W

Satellite Date Start Highest point End Downlink Frequencies (MHz)
Time Altitude Azimuth
NUDT-PHONESAT 16 Dec 16:07:26 16:09:53 17° 63° (ENE) 16:12:20 437.300
XW-2D 16 Dec 16:12:04 16:15:18 28° 68° (ENE) 16:18:36 145.860 - 145.880
YUBILEINY 16 Dec 16:13:34 16:17:51 15° 289° (WNW) 16:22:08 435.215
KAITUO 1B 16 Dec 16:14:45 16:17:38 21° 65° (ENE) 16:20:34 145.475/437.950
ITUPSAT 1 16 Dec 16:17:03 16:21:30 40° 293° (WNW) 16:25:56 437.325
CUTE-I 16 Dec 16:26:20 16:31:19 41° 66° (ENE) 16:36:21 437.470
XW-2B 16 Dec 16:27:41 16:31:13 38° 70° (ENE) 16:34:48 145.730 - 145.750
ITAMSAT 1 16 Dec 16:28:17 16:29:52 11° 274° (W) 16:31:27 435.822/435.867
PCSat 16 Dec 16:29:41 16:30:42 10° 101° (E) 16:31:43 145.827
nSIGHT-1 16 Dec 16:31:23 16:34:23 35° 214° (SW) 16:37:21 .
CUBESAT XI-V 16 Dec 16:36:00 16:40:39 58° 288° (WNW) 16:45:16 437.345
DOVE 4 16 Dec 16:36:10 16:41:00 37° 264° (W) 16:45:42 437.250
XW-2F 16 Dec 16:37:35 16:41:13 47° 72° (ENE) 16:44:54 145.980 - 146.000
KKS-1 16 Dec 16:40:18 16:44:19 33° 97° (E) 16:48:18 437.445
SO-50 16 Dec 16:40:29 16:44:10 24° 326° (NW) 16:47:55 436.795
CUTE 1.7 + AOD 2 16 Dec 16:43:49 16:46:51 19° 62° (ENE) 16:49:53 437.475
MOZHAYETS 4 16 Dec 16:45:09 16:47:56 16° 301° (WNW) 16:50:41
XW-2C 16 Dec 16:54:56 16:58:43 81° 77° (ENE) 17:02:34 145.795 - 145.815
STARS 16 Dec 17:16:44 17:20:40 32° 97° (E) 17:24:33 437.465
O/OREOS (USA 219) 16 Dec 17:21:42 17:26:13 81° 246° (WSW) 17:30:42 437.305
ISS 16 Dec 17:21:59 17:24:24 19° 221° (SW) 17:26:50 437.550
BEESAT 16 Dec 17:27:03 17:28:36 11° 306° (NW) 17:30:10 436.000
HO-68 16 Dec 17:29:18 17:36:26 71° 69° (ENE) 17:43:36 435.675
RS-15 16 Dec 17:34:10 17:45:27 39° 342° (NNW) 17:56:26 29.354- 29.394
LilacSat-2 16 Dec 17:34:47 17:38:15 33° 264° (W) 17:41:47 437.200
XW-2A 16 Dec 17:39:41 17:41:43 15° 64° (ENE) 17:43:46 145.665 - 145.685
NUDT-PHONESAT 16 Dec 17:39:52 17:43:24 43° 261° (W) 17:46:59 437.300
XW-2D 16 Dec 17:46:13 17:49:26 26° 265° (W) 17:52:42 145.860 - 145.880
KAITUO 1B 16 Dec 17:47:59 17:51:25 34° 263° (W) 17:54:55 145.475/437.950
UWE-3 16 Dec 17:49:44 17:53:20 29° 67° (ENE) 17:56:57 435.000/436.395/437.385
SEEDS 16 Dec 17:50:30 17:54:37 52° 72° (ENE) 17:58:46 437.485
CUBEBUG 2 16 Dec 17:54:29 17:58:34 56° 73° (ENE) 18:02:38 437.445
STRAND 1 16 Dec 17:55:49 17:57:51 12° 86° (E) 17:59:52 437.568
AAUSAT CUBESAT 2 16 Dec 18:02:36 18:06:20 32° 68° (ENE) 18:10:05 437.432
XW-2B 16 Dec 18:02:49 18:05:33 19° 268° (W) 18:08:17 145.730 - 145.750
CUTE-I 16 Dec 18:06:42 18:11:27 32° 265° (W) 18:16:15 437.470
PCSat 16 Dec 18:07:41 18:13:03 67° 120° (ESE) 18:18:28 145.827
ZACube-1 16 Dec 18:09:36 18:13:01 26° 66° (ENE) 18:16:30 437.345
BEESAT 3 16 Dec 18:10:39 18:11:28 11° 109° (ESE) 18:12:18 437.485
XW-2F 16 Dec 18:13:16 18:15:34 15° 269° (W) 18:17:54 145.980 - 146.000
KKS-1 16 Dec 18:16:58 18:20:48 29° 295° (WNW) 18:24:38 437.445
CUTE 1.7 + AOD 2 16 Dec 18:18:10 18:22:19 51° 261° (W) 18:26:31 437.475
Oscar 11 16 Dec 18:25:04 18:28:32 24° 64° (ENE) 18:32:01 .
SO-50 16 Dec 18:25:21 18:26:16 10° 350° (N) 18:27:12 436.795
AO-73 16 Dec 18:41:25 18:45:22 47° 71° (ENE) 18:49:23 145.935
STARS 16 Dec 18:53:09 18:56:57 30° 294° (WNW) 19:00:43 437.465
FO-29 16 Dec 19:04:39 19:09:49 22° 86° (E) 19:14:32 435.910
XW-2A 16 Dec 19:10:56 19:14:06 39° 262° (W) 19:17:19 145.665 - 145.685
HO-68 16 Dec 19:18:57 19:24:46 26° 268° (W) 19:30:38 435.675
UWE-3 16 Dec 19:26:11 19:29:46 28° 265° (W) 19:33:23 435.000/436.395/437.385
SEEDS 16 Dec 19:27:49 19:30:36 17° 270° (W) 19:33:26 437.485
STRAND 1 16 Dec 19:32:40 19:37:48 86° 102° (ESE) 19:42:54 437.568
CUBEBUG 2 16 Dec 19:33:06 19:35:33 15° 270° (W) 19:38:00 437.445
AAUSAT CUBESAT 2 16 Dec 19:38:13 19:41:47 27° 266° (W) 19:45:22 437.432
BEESAT 3 16 Dec 19:44:20 19:48:19 88° 132° (SE) 19:52:21 437.485
ZACube-1 16 Dec 19:45:28 19:49:12 33° 264° (W) 19:52:59 437.345
RS-15 16 Dec 19:50:53 20:01:57 38° 16° (NNE) 20:12:32 29.354- 29.394
PCSat 16 Dec 19:52:17 19:56:55 28° 321° (NW) 20:01:34 145.827
Max Valier Satellite 16 Dec 19:56:31 19:59:38 27° 67° (ENE) 20:02:46 145.860
Oscar 11 16 Dec 20:00:25 20:04:28 39° 263° (W) 20:08:35 .
SO-50 16 Dec 20:07:12 20:08:51 12° 15° (NNE) 20:10:30 436.795
AO-85 16 Dec 20:13:35 20:15:41 14° 110° (ESE) 20:17:51 145.980
DELFI C3 16 Dec 20:16:11 20:20:08 67° 74° (ENE) 20:24:07 145.870
EO-88 16 Dec 20:18:29 20:21:46 33° 69° (ENE) 20:25:06 145.990 - 145.960
AO-73 16 Dec 20:19:03 20:21:53 18° 269° (W) 20:24:44 145.935
BEESAT 2 16 Dec 20:30:13 20:34:13 76° 127° (SE) 20:38:18 435.950
FO-29 16 Dec 20:48:44 20:55:44 73° 289° (WNW) 21:01:50 435.910
ESTCUBE 1 16 Dec 20:55:16 20:57:50 15° 58° (ENE) 21:00:23 437.505/2401.250
TIGRISAT 16 Dec 21:02:32 21:06:19 28° 95° (E) 21:10:09 435.000
UNISAT 6 16 Dec 21:06:24 21:10:22 33° 97° (E) 21:14:24 437.425
STRAND 1 16 Dec 21:13:15 21:16:19 16° 304° (NW) 21:19:22 437.568
BEESAT 3 16 Dec 21:23:38 21:26:24 18° 327° (NNW) 21:29:11 437.485
Max Valier Satellite 16 Dec 21:30:22 21:33:24 25° 265° (W) 21:36:30 145.860
PCSat 16 Dec 21:40:38 21:42:15 11° 346° (NNW) 21:43:53 145.827
SO-50 16 Dec 21:46:39 21:50:46 30° 38° (NE) 21:54:55 436.795
AO-85 16 Dec 21:51:32 21:55:28 69° 311° (NW) 21:59:42 145.980
EO-88 16 Dec 21:52:44 21:55:29 20° 267° (W) 21:58:15 145.990 - 145.960
DELFI C3 16 Dec 21:53:43 21:55:19 12° 272° (W) 21:56:56 145.870
RS-15 16 Dec 22:04:48 22:16:49 73° 47° (NE) 22:28:07 29.354- 29.394
BEESAT 2 16 Dec 22:09:24 22:12:25 20° 326° (NW) 22:15:27 435.950
FALCONSAT 3 16 Dec 22:13:30 22:14:44 11° 173° (S) 22:15:57 435.103
LO-87 16 Dec 22:13:59 22:17:31 80° 257° (WSW) 22:21:04 145.935 - 145.965
VELOX 1 16 Dec 22:17:25 22:20:08 16° 59° (ENE) 22:22:50 145.980
ESTCUBE 1 16 Dec 22:29:30 22:34:01 78° 256° (WSW) 22:38:36 437.505/2401.250
AIST 2D 16 Dec 22:33:53 22:37:05 30° 96° (E) 22:40:14 435.315
PRISM 16 Dec 22:34:33 22:38:41 79° 102° (ESE) 22:42:45 437.425
FO-29 16 Dec 22:35:10 22:39:29 18° 311° (NW) 22:43:30 435.910
SPROUT 16 Dec 22:37:00 22:40:49 33° 68° (ENE) 22:44:38 437.525
TIGRISAT 16 Dec 22:39:08 22:43:01 33° 292° (WNW) 22:46:59 435.000
UNISAT 6 16 Dec 22:43:16 22:47:00 28° 294° (WNW) 22:50:46 437.425
EO-79 16 Dec 22:49:28 22:52:11 16° 91° (E) 22:54:53 145.935-145.965
DX 1 16 Dec 23:06:09 23:07:51 12° 56° (NE) 23:09:33 434.975-435.025
POLYITAN 1 16 Dec 23:12:29 23:16:08 28° 95° (E) 23:19:47 437.675
SO-50 16 Dec 23:26:56 23:31:27 52° 238° (WSW) 23:36:03 436.795
PCSat 16 Dec 23:26:57 23:28:20 11° 13° (NNE) 23:29:42 145.827
AO-85 16 Dec 23:34:08 23:36:43 16° 333° (NNW) 23:39:24 145.980
QB50P2 16 Dec 23:38:05 23:42:16 56° 101° (E) 23:46:26 145.880/145.840
DUCHIFAT 1 16 Dec 23:39:02 23:43:00 40° 98° (E) 23:46:58 145.980
VELOX 1 16 Dec 23:51:36 23:56:02 70° 257° (WSW) 00:00:31 145.980
FALCONSAT 3 16 Dec 23:51:52 23:52:54 11° 189° (S) 23:53:56 435.103
Oscar 19 16 Dec 23:58:43 00:00:44 12° 86° (E) 00:02:45 437.125/150
NANOSAT C BR1 17 Dec 00:06:53 00:11:07 90° 103° (ESE) 00:15:20 145.865
50 SAT 17 Dec 00:06:56 00:09:50 33° 70° (ENE) 00:12:44 437.505
AIST 2D 17 Dec 00:07:21 00:10:05 21° 294° (WNW) 00:12:48 435.315
BUGSAT 1 17 Dec 00:09:44 00:12:51 21° 93° (E) 00:15:58 437.445
PRISM 17 Dec 00:11:33 00:13:21 13° 302° (WNW) 00:15:09 437.425
SPROUT 17 Dec 00:13:08 00:16:44 26° 265° (W) 00:20:20 437.525
RS-15 17 Dec 00:18:00 00:28:28 40° 252° (WSW) 00:38:29 29.354- 29.394
UKube-1 17 Dec 00:18:06 00:22:01 34° 67° (ENE) 00:25:57 .
EO-79 17 Dec 00:24:08 00:28:15 54° 288° (WNW) 00:32:22 145.935-145.965
MOZHAYETS 4 17 Dec 00:37:02 00:39:35 15° 58° (ENE) 00:42:09
DX 1 17 Dec 00:38:57 00:43:19 86° 80° (E) 00:47:44 434.975-435.025
POLYITAN 1 17 Dec 00:48:09 00:51:55 32° 293° (WNW) 00:55:41 437.675
Gurwin Techsat 1B 17 Dec 00:59:36 01:04:19 31° 95° (E) 01:09:00 435.225
PCSat 17 Dec 01:09:13 01:13:45 26° 38° (NE) 01:18:15 145.827
QB50P2 17 Dec 01:14:52 01:17:39 17° 299° (WNW) 01:20:27 145.880/145.840
AO-91 17 Dec 01:14:57 01:18:20 49° 100° (E) 01:21:37 145.960
DUCHIFAT 1 17 Dec 01:15:09 01:18:27 23° 296° (WNW) 01:21:44 145.980
BEESAT 17 Dec 01:19:43 01:23:41 27° 63° (ENE) 01:27:40 436.000
YUBILEINY 17 Dec 01:23:44 01:31:11 32° 82° (E) 01:38:39 435.215
AO-7 17 Dec 01:32:37 01:36:29 14° 84° (E) 01:40:19 .
Oscar 19 17 Dec 01:35:36 01:40:51 83° 104° (ESE) 01:46:04 437.125/150
50 SAT 17 Dec 01:40:04 01:41:54 14° 267° (W) 01:43:44 437.505
BUGSAT 1 17 Dec 01:44:34 01:48:20 38° 291° (WNW) 01:52:07 437.445
NANOSAT C BR1 17 Dec 01:44:39 01:46:10 12° 302° (WNW) 01:47:40 145.865
ITUPSAT 1 17 Dec 01:49:11 01:53:43 47° 69° (ENE) 01:58:18 437.325
UKube-1 17 Dec 01:54:25 01:58:05 27° 265° (W) 02:01:46 .
CUBESAT XI-V 17 Dec 02:05:51 02:09:45 27° 64° (ENE) 02:13:41 437.345
MOZHAYETS 4 17 Dec 02:11:35 02:16:08 79° 257° (WSW) 02:20:45
DX 1 17 Dec 02:18:54 02:20:07 11° 272° (W) 02:21:20 434.975-435.025
BEESAT 3 17 Dec 02:20:45 02:24:02 24° 38° (NE) 02:27:15 437.485
M-CUBED/EXP-1 PRIME 17 Dec 02:28:33 02:30:35 13° 92° (E) 02:32:33 437.505
Gurwin Techsat 1B 17 Dec 02:39:23 02:44:22 41° 294° (WNW) 02:49:19 435.225
PCSat 17 Dec 02:52:16 02:57:42 75° 240° (WSW) 03:03:05 145.827
AO-91 17 Dec 02:52:56 02:54:25 12° 299° (WNW) 02:55:53 145.960
ITAMSAT 1 17 Dec 02:54:04 02:58:30 28° 94° (E) 03:02:54 435.822/435.867
BEESAT 17 Dec 02:56:47 03:01:16 42° 262° (W) 03:05:48 436.000
AO-85 17 Dec 02:59:06 03:01:29 14° 23° (NNE) 03:03:58 145.980
BEESAT 2 17 Dec 03:07:24 03:10:40 23° 37° (NE) 03:13:54 435.950
Oscar 19 17 Dec 03:16:12 03:19:31 17° 304° (WNW) 03:22:51 437.125/150
YUBILEINY 17 Dec 03:18:36 03:27:22 66° 284° (WNW) 03:36:13 435.215
AO-7 17 Dec 03:22:34 03:30:55 64° 105° (ESE) 03:39:13 .
ITUPSAT 1 17 Dec 03:28:01 03:31:47 23° 267° (W) 03:35:34 437.325
KKS-1 17 Dec 03:41:12 03:45:28 47° 70° (ENE) 03:49:45 437.445
CUBESAT XI-V 17 Dec 03:42:31 03:46:56 41° 263° (W) 03:51:24 437.345
BEESAT 3 17 Dec 03:57:57 04:01:48 51° 238° (WSW) 04:05:34 437.485
M-CUBED/EXP-1 PRIME 17 Dec 04:01:01 04:05:34 79° 292° (WNW) 04:09:48 437.505
STARS 17 Dec 04:16:10 04:20:20 44° 69° (ENE) 04:24:30 437.465
DOVE 4 17 Dec 04:31:30 04:35:52 48° 99° (E) 04:39:59 437.250
ITAMSAT 1 17 Dec 04:33:13 04:38:08 44° 293° (WNW) 04:43:01 435.822/435.867
PCSat 17 Dec 04:38:09 04:40:09 12° 258° (WSW) 04:42:08 145.827
AO-85 17 Dec 04:38:31 04:43:01 44° 45° (NE) 04:47:49 145.980
NO-84 17 Dec 04:38:49 04:39:08 10° 126° (SE) 04:39:27 435.350 FM
CUTE-I 17 Dec 04:41:53 04:43:43 12° 85° (E) 04:45:33 437.470
BEESAT 2 17 Dec 04:44:43 04:48:43 59° 237° (WSW) 04:52:37 435.950
LilacSat-2 17 Dec 05:04:34 05:07:33 21° 93° (E) 05:10:30 437.200
NUDT-PHONESAT 17 Dec 05:07:23 05:09:22 14° 90° (E) 05:11:21 437.300
STRAND 1 17 Dec 05:13:59 05:18:12 27° 62° (ENE) 05:22:25 437.568
XW-2D 17 Dec 05:14:44 05:17:58 25° 94° (E) 05:21:10 145.860 - 145.880
KAITUO 1B 17 Dec 05:15:47 05:18:28 18° 92° (E) 05:21:08 145.475/437.950
AO-7 17 Dec 05:15:51 05:23:17 37° 306° (NW) 05:30:42 .
KKS-1 17 Dec 05:18:53 05:22:16 21° 267° (W) 05:25:38 437.445
FO-29 17 Dec 05:20:04 05:25:33 21° 52° (NE) 05:30:55 435.910
YUBILEINY 17 Dec 05:20:47 05:26:14 17° 309° (NW) 05:31:42 435.215
XW-2B 17 Dec 05:30:29 05:34:04 35° 97° (E) 05:37:36 145.730 - 145.750
M-CUBED/EXP-1 PRIME 17 Dec 05:37:03 05:39:07 13° 311° (NW) 05:41:08 437.505
XW-2F 17 Dec 05:39:53 05:43:33 42° 98° (E) 05:47:12 145.980 - 146.000
STARS 17 Dec 05:53:28 05:56:51 22° 267° (W) 06:00:15 437.465
XW-2C 17 Dec 05:57:54 06:01:46 75° 102° (ESE) 06:05:37 145.795 - 145.815
CUTE 1.7 + AOD 2 17 Dec 05:59:53 06:03:15 22° 92° (E) 06:06:35 437.475
DOVE 4 17 Dec 06:09:53 06:13:12 21° 298° (WNW) 06:16:24 437.250
NO-84 17 Dec 06:12:41 06:15:42 81° 146° (SSE) 06:18:59 435.350 FM
AO-85 17 Dec 06:19:04 06:23:23 34° 242° (WSW) 06:27:58 145.980
CUTE-I 17 Dec 06:19:16 06:24:38 79° 104° (ESE) 06:29:57 437.470
LilacSat-2 17 Dec 06:38:20 06:41:55 36° 290° (WNW) 06:45:29 437.200
NUDT-PHONESAT 17 Dec 06:39:50 06:43:31 52° 287° (WNW) 06:47:10 437.300
HO-68 17 Dec 06:40:47 06:47:49 55° 101° (E) 06:54:47 435.675
XW-2D 17 Dec 06:48:45 06:52:08 29° 292° (WNW) 06:55:28 145.860 - 145.880
KAITUO 1B 17 Dec 06:49:02 06:52:36 39° 289° (WNW) 06:56:08 145.475/437.950
STRAND 1 17 Dec 06:52:12 06:57:08 48° 261° (W) 07:02:06 437.568
FO-29 17 Dec 07:01:37 07:09:26 76° 71° (ENE) 07:17:11 435.910
XW-2B 17 Dec 07:05:03 07:08:02 22° 295° (WNW) 07:11:00 145.730 - 145.750
SEEDS 17 Dec 07:06:06 07:10:21 65° 101° (ESE) 07:14:33 437.485
AO-7 17 Dec 07:10:52 07:13:40 12° 330° (NNW) 07:16:29 .
UWE-3 17 Dec 07:11:02 07:15:09 41° 98° (E) 07:19:22 435.000/436.395/437.385
XW-2F 17 Dec 07:14:41 07:17:22 18° 296° (WNW) 07:20:02 145.980 - 146.000
AAUSAT CUBESAT 2 17 Dec 07:16:01 07:19:53 36° 97° (E) 07:23:43 437.432
CUBEBUG 2 17 Dec 07:17:35 07:21:53 83° 104° (ESE) 07:26:17 437.445
ZACube-1 17 Dec 07:29:22 07:33:24 35° 97° (E) 07:37:29 437.345
XW-2C 17 Dec 07:33:55 07:35:23 12° 300° (WNW) 07:36:49 145.795 - 145.815
CUTE 1.7 + AOD 2 17 Dec 07:35:11 07:39:14 41° 290° (WNW) 07:43:15 437.475
O/OREOS (USA 219) 17 Dec 07:37:02 07:41:32 61° 112° (ESE) 07:46:03 437.305
Oscar 11 17 Dec 07:43:58 07:47:48 29° 95° (E) 07:51:36 .
NO-84 17 Dec 07:50:25 07:53:15 28° 347° (NNW) 07:56:17 435.350 FM
PRISM 17 Dec 07:54:41 07:55:58 11° 57° (ENE) 07:57:16 437.425
CUTE-I 17 Dec 08:00:29 08:04:04 19° 303° (WNW) 08:07:38 437.470
XW-2A 17 Dec 08:01:09 08:04:35 63° 285° (WNW) 08:07:58 145.665 - 145.685
AO-73 17 Dec 08:01:14 08:05:36 66° 101° (E) 08:10:02 145.935
TIGRISAT 17 Dec 08:04:24 08:08:18 36° 68° (ENE) 08:12:12 435.000
UNISAT 6 17 Dec 08:08:21 08:12:24 43° 70° (ENE) 08:16:27 437.425
HO-68 17 Dec 08:28:54 08:35:19 37° 301° (WNW) 08:41:41 435.675
SEEDS 17 Dec 08:43:00 08:45:32 16° 300° (WNW) 08:48:05 437.485
UWE-3 17 Dec 08:47:58 08:51:24 23° 295° (WNW) 08:54:54 435.000/436.395/437.385
FO-29 17 Dec 08:48:34 08:55:02 28° 271° (W) 09:01:32 435.910
AAUSAT CUBESAT 2 17 Dec 08:51:48 08:55:10 24° 295° (WNW) 08:58:31 437.432
CUBEBUG 2 17 Dec 08:56:00 08:57:55 13° 301° (WNW) 08:59:52 437.445
Max Valier Satellite 17 Dec 08:56:14 08:59:15 23° 94° (E) 09:02:16 145.860
ZACube-1 17 Dec 09:05:52 09:09:34 27° 294° (WNW) 09:13:19 437.345
AIST 2D 17 Dec 09:11:29 09:14:05 20° 66° (ENE) 09:16:42 435.315
EO-88 17 Dec 09:16:53 09:20:02 26° 95° (E) 09:23:10 145.990 - 145.960
O/OREOS (USA 219) 17 Dec 09:17:55 09:21:22 21° 311° (NW) 09:24:48 437.305
Oscar 11 17 Dec 09:20:02 09:23:56 32° 293° (WNW) 09:27:48 .
DELFI C3 17 Dec 09:23:59 09:27:56 69° 102° (ESE) 09:31:50 145.870
PRISM 17 Dec 09:26:24 09:30:33 87° 79° (E) 09:34:45 437.425
NO-84 17 Dec 09:28:18 09:31:13 26° 9° (N) 09:34:20 435.350 FM
NANOSAT C BR1 17 Dec 09:28:57 09:30:48 13° 58° (ENE) 09:32:38 145.865
AO-73 17 Dec 09:38:39 09:41:22 16° 299° (WNW) 09:44:07 145.935
TIGRISAT 17 Dec 09:41:36 09:45:05 24° 266° (W) 09:48:35 435.000
EO-79 17 Dec 09:44:59 09:48:02 20° 63° (ENE) 09:51:05 145.935-145.965
UNISAT 6 17 Dec 09:46:06 09:49:19 20° 268° (W) 09:52:32 437.425
ISS 17 Dec 10:03:39 10:06:13 21° 140° (SE) 10:08:47 437.550
POLYITAN 1 17 Dec 10:08:02 10:11:45 32° 67° (ENE) 10:15:29 437.675
ESTCUBE 1 17 Dec 10:19:21 10:22:26 18° 90° (E) 10:25:31 437.505/2401.250
Max Valier Satellite 17 Dec 10:29:47 10:33:05 30° 291° (WNW) 10:36:23 145.860
QB50P2 17 Dec 10:33:30 10:37:39 64° 73° (ENE) 10:41:49 145.880/145.840
DUCHIFAT 1 17 Dec 10:33:39 10:37:37 45° 70° (ENE) 10:41:36 145.980
AIST 2D 17 Dec 10:43:51 10:47:03 32° 263° (W) 10:50:17 435.315
nSIGHT-1 17 Dec 10:45:49 10:48:59 55° 150° (SSE) 10:52:09 .
Gurwin Techsat 1B 17 Dec 10:47:54 10:50:08 13° 52° (NE) 10:52:23 435.225
AO-7 17 Dec 10:49:54 10:51:13 10° 26° (NNE) 10:52:32 .
EO-88 17 Dec 10:50:31 10:53:36 25° 293° (WNW) 10:56:39 145.990 - 145.960
DELFI C3 17 Dec 11:00:16 11:02:09 13° 300° (WNW) 11:04:01 145.870
NANOSAT C BR1 17 Dec 11:01:43 11:05:54 81° 256° (WSW) 11:10:06 145.865
BUGSAT 1 17 Dec 11:02:34 11:05:47 24° 65° (ENE) 11:09:00 437.445
NO-84 17 Dec 11:05:25 11:08:57 61° 28° (NNE) 11:12:47 435.350 FM
LO-87 17 Dec 11:10:21 11:13:55 78° 103° (ESE) 11:17:28 145.935 - 145.965
Oscar 19 17 Dec 11:17:49 11:22:03 27° 62° (ENE) 11:26:19 437.125/150
EO-79 17 Dec 11:19:27 11:23:29 46° 261° (W) 11:27:33 145.935-145.965
YUBILEINY 17 Dec 11:28:41 11:34:49 20° 54° (NE) 11:40:55 435.215
VELOX 1 17 Dec 11:38:59 11:41:56 17° 91° (E) 11:44:50 145.980
ISS 17 Dec 11:39:06 11:42:24 81° 337° (NNW) 11:45:43 437.550
POLYITAN 1 17 Dec 11:43:59 11:47:32 27° 265° (W) 11:51:08 437.675
SPROUT 17 Dec 11:54:18 11:58:18 38° 98° (E) 12:02:17 437.525
ESTCUBE 1 17 Dec 11:55:08 11:59:36 57° 289° (WNW) 12:04:02 437.505/2401.250
DUCHIFAT 1 17 Dec 12:10:31 12:13:30 19° 268° (W) 12:16:30 145.980
QB50P2 17 Dec 12:11:42 12:13:52 14° 271° (W) 12:16:02 145.880/145.840
AO-91 17 Dec 12:14:11 12:18:52 71° 74° (ENE) 12:23:04 145.960
nSIGHT-1 17 Dec 12:22:07 12:25:15 46° 349° (N) 12:28:23 .
Gurwin Techsat 1B 17 Dec 12:23:52 12:29:08 69° 72° (ENE) 12:34:27 435.225
DX 1 17 Dec 12:25:49 12:27:14 11° 88° (E) 12:28:39 434.975-435.025
RS-15 17 Dec 12:33:27 12:43:27 31° 103° (ESE) 12:53:20 29.354- 29.394
AO-7 17 Dec 12:34:20 12:41:22 32° 51° (NE) 12:48:25 .
BUGSAT 1 17 Dec 12:37:18 12:40:59 34° 263° (W) 12:44:41 437.445
ITAMSAT 1 17 Dec 12:40:18 12:41:46 11° 51° (NE) 12:43:13 435.822/435.867
NO-84 17 Dec 12:42:53 12:46:03 26° 225° (SW) 12:49:25 435.350 FM
50 SAT 17 Dec 12:51:47 12:53:55 17° 94° (E) 12:56:01 437.505
Oscar 19 17 Dec 12:56:09 13:01:07 49° 261° (W) 13:06:09 437.125/150
VELOX 1 17 Dec 13:14:23 13:18:43 55° 289° (WNW) 13:23:01 145.980
M-CUBED/EXP-1 PRIME 17 Dec 13:15:15 13:19:07 29° 59° (ENE) 13:23:08 437.505
ISS 17 Dec 13:16:00 13:19:08 40° 357° (N) 13:22:18 437.550
YUBILEINY 17 Dec 13:24:29 13:33:22 77° 79° (E) 13:42:08 435.215
SPROUT 17 Dec 13:30:36 13:34:00 24° 295° (WNW) 13:37:23 437.525
UKube-1 17 Dec 13:37:04 13:41:05 37° 98° (E) 13:45:05 .
SO-50 17 Dec 13:45:04 13:48:28 22° 114° (ESE) 13:51:54 436.795
AO-91 17 Dec 13:53:15 13:55:38 14° 269° (W) 13:57:55 145.960
nSIGHT-1 17 Dec 13:58:42 14:01:49 44° 8° (N) 14:04:57 .
DX 1 17 Dec 13:59:38 14:04:01 82° 284° (WNW) 14:08:20 434.975-435.025
MOZHAYETS 4 17 Dec 14:03:45 14:07:06 19° 91° (E) 14:10:25
DOVE 4 17 Dec 14:05:04 14:07:16 13° 56° (NE) 14:09:24 437.250
Gurwin Techsat 1B 17 Dec 14:05:56 14:09:36 19° 270° (W) 14:13:17 435.225
ITAMSAT 1 17 Dec 14:15:05 14:20:13 61° 70° (ENE) 14:25:21 435.822/435.867
50 SAT 17 Dec 14:23:08 14:25:54 28° 291° (WNW) 14:28:39 437.505
AO-7 17 Dec 14:25:09 14:33:28 76° 253° (WSW) 14:41:52 .
RS-15 17 Dec 14:42:09 14:54:32 89° 307° (NW) 15:06:47 29.354- 29.394
M-CUBED/EXP-1 PRIME 17 Dec 14:49:08 14:53:19 39° 258° (WSW) 14:57:40 437.505
ISS 17 Dec 14:52:41 14:55:58 62° 18° (NNE) 14:59:14 437.550
BEESAT 17 Dec 14:53:01 14:57:28 37° 98° (E) 15:01:51 436.000
UKube-1 17 Dec 15:13:24 15:16:57 25° 296° (WNW) 15:20:28 .
YUBILEINY 17 Dec 15:22:19 15:29:16 27° 281° (W) 15:36:10 435.215
ITUPSAT 1 17 Dec 15:23:28 15:28:15 69° 103° (ESE) 15:33:01 437.325
SO-50 17 Dec 15:24:08 15:28:33 57° 313° (NW) 15:33:03 436.795
HO-68 17 Dec 15:29:35 15:33:18 15° 44° (NE) 15:37:01 435.675
nSIGHT-1 17 Dec 15:34:57 15:38:09 63° 209° (SSW) 15:41:20 .
CUBESAT XI-V 17 Dec 15:35:12 15:39:37 38° 97° (E) 15:44:01 437.345
DX 1 17 Dec 15:38:03 15:39:27 11° 304° (NW) 15:40:50 434.975-435.025
DOVE 4 17 Dec 15:38:56 15:44:09 74° 75° (ENE) 15:49:10 437.250
MOZHAYETS 4 17 Dec 15:40:03 15:44:34 54° 289° (WNW) 15:49:04
LilacSat-2 17 Dec 15:49:58 15:52:35 18° 63° (ENE) 15:55:12 437.200
NUDT-PHONESAT 17 Dec 15:50:31 15:51:44 11° 60° (ENE) 15:52:58 437.300
ITAMSAT 1 17 Dec 15:56:14 16:00:05 21° 269° (W) 16:03:57 435.822/435.867
XW-2D 17 Dec 15:59:16 16:02:08 21° 65° (ENE) 16:05:03 145.860 - 145.880
KAITUO 1B 17 Dec 15:59:18 16:01:31 15° 62° (ENE) 16:03:44 145.475/437.950
